Regional Weather Roundup
Issued by NWS

Home | Current Version | Previous Version | Text Only | Print | Product List | Glossary On
Versions: 1 2 3 4 5 6 7 8 9 10 11 12 13 14 15 16 17 18 19 20 21 22 23 24 25 26 27 28 29 30 31 32 33 34 35 36 37 38 39 40 41 42 43 44 45 46 47 48 49 50
000
ASUS43 KDTX 030710
RWRMI
MICHIGAN HOURLY REGIONAL WEATHER ROUNDUP
NATIONAL WEATHER SERVICE DETROIT/PONTIAC MI
200 AM EST FRI DEC 03 2021

NOTE: "FAIR" INDICATES FEW OR NO CLOUDS BELOW 12,000 FEET WITH NO
SIGNIFICANT WEATHER AND/OR OBSTRUCTION TO VISIBILITY.

MIZ047>049-052>055-059>063-066>070-074>076-081>083-030800-
SOUTHEAST LOWER MICHIGAN

CITY           SKY/WX    TMP DP  RH WIND       PRES   REMARKS
ADRIAN         MOCLDY    35  30  82 CALM      30.04S
ALMA           MOCLDY    32  30  93 CALM      30.03S
ANN ARBOR      PTCLDY    30  27  88 W5        30.03R WCI  25
BAD AXE        CLOUDY    34  27  76 NW6       30.00S WCI  29
CARO           MOCLDY    31  28  88 CALM      30.01S
DETROIT CITY   CLEAR     36  27  69 NW5       30.02F WCI  32
DETROIT        MOCLDY    36  27  69 NW5       30.04S WCI  32
FLINT          PTCLDY    30  27  88 CALM      30.02F
GROSSE ILE     CLEAR     37  25  61 NW3       30.03R
HILLSDALE      CLOUDY    35  31  87 CALM      30.01S
HOWELL         PTCLDY    34  28  79 CALM      30.02R

CITY           SKY/WX    TMP DP  RH WIND       PRES   REMARKS
JACKSON        MOCLDY    34  30  85 CALM      30.02S
LAMBERTVILLE   MOCLDY    35  31  87 CALM      30.03F
LANSING        MOCLDY    38  28  67 CALM      30.03R
LAPEER         NOT AVBL
MASON          MOCLDY    34  31  90 CALM      30.03R
MONROE         PTCLDY    35  29  78 CALM      30.03R
MT. CLEMENS    CLEAR     33  29  85 W5        30.01S WCI  29
PONTIAC        PTCLDY    32  27  81 NW3       29.99F
PORT HOPE        N/A     35  25  66 NW13G18   29.99R WCI  26
PORT HURON     PTCLDY    34  25  69 NW5       30.01R WCI  30
TRI CITIES     MOCLDY    32  27  81 NW6       30.03R WCI  26
MIDLAND        MOCLDY    31  26  83 CALM      30.01F
TROY           CLEAR     33  27  77 NW3       30.04S
SAGINAW HB     MOCLDY    33  28  82 NW3       30.03R
$$
MIZ043>046-050>051-056>058-064>065-071>073-077>080-030800-
SOUTHWEST LOWER MICHIGAN

CITY           SKY/WX    TMP DP  RH WIND       PRES   REMARKS
BATTLE CREEK   CLOUDY    36  31  82 SW3       30.02F
BENTON HARBOR  CLOUDY    40  33  76 CALM      30.02F
BIG RAPIDS     CLOUDY    32  26  79 CALM      30.02R
COLDWATER      CLOUDY    34  32  92 CALM      30.03R
FREMONT        CLOUDY    32  30  93 CALM      30.04
HOLLAND        CLOUDY    38  33  82 CALM      30.03S
GRAND RAPIDS   CLOUDY    36  32  85 CALM      30.02F
IONIA          CLOUDY    35  29  80 CALM      30.00F
KALAMAZOO      MOCLDY    37  30  75 CALM      30.03R
LUDINGTON      CLOUDY    34  29  80 CALM      30.04R
MARSHALL       CLOUDY    34  32  90 CALM      30.02S
MUSKEGON       CLOUDY    38  30  73 N5        30.04R WCI  34
SOUTH HAVEN    CLOUDY    37  32  84 CALM      30.02F
$$
MIZ016>042-030800-
NORTHERN LOWER MICHIGAN

CITY           SKY/WX    TMP DP  RH WIND       PRES   REMARKS
ALPENA         CLOUDY    31  23  72 VRB5      30.00R WCI  26
BEAVER ISLAND  CLOUDY    32  23  70 CALM      30.03S
CADILLAC       CLOUDY    31  27  83 CALM      29.99R
CHARLEVOIX     CLOUDY    33  24  68 NW8G20    30.03R WCI  26
FRANKFORT      CLOUDY    35  25  66 CALM      30.05R
GAYLORD        CLOUDY    30  25  81 VRB5      29.99R WCI  25
GRAYLING       CLOUDY    30  26  85 NW6       29.99S WCI  24
HOUGHTON LAKE  MOCLDY    30  25  81 N7        30.00S WCI  23
MANISTEE       CLOUDY    33  30  88 CALM      30.05R
OSCODA         CLOUDY    32  20  61 NW12      30.02R WCI  23
ROGERS CITY    CLOUDY    31  24  73 W8        30.02R WCI  24
TRAVERSE CITY  CLOUDY    34  28  79 CALM      30.02S
$$
MIZ007>008-015-030800-
EASTERN UPPER MICHIGAN

CITY           SKY/WX    TMP DP  RH WIND       PRES   REMARKS
KINROSS        CLOUDY    25  19  78 NE5       30.01S WCI  19
MACKINAC ISLAN CLOUDY    30  19  65 NW6       30.01R WCI  24
NEWBERRY       CLOUDY    28  22  78 CALM      30.00S
S. S. MARIE    CLOUDY    26  15  63 N7        30.00S WCI  18
$$
MIZ004>006-011>014-085-030800-
CENTRAL UPPER MICHIGAN

CITY           SKY/WX    TMP DP  RH WIND       PRES   REMARKS
MANISTIQUE     CLOUDY    30  25  83 W5        30.03R WCI  25
ESCANABA       CLOUDY    31  24  75 CALM      30.05S
MENOMINEE      CLOUDY    32  24  72 CALM      30.05F
SAWYER-GWINN   CLOUDY    26  24  91 N3        30.02R
$$
MIZ001>003-009>011-084-030800-
WESTERN UPPER MICHIGAN

CITY           SKY/WX    TMP DP  RH WIND       PRES   REMARKS
IRON MOUNTAIN  CLOUDY    30  21  69 CALM      30.01S
HOUGHTON       CLOUDY    29  18  63 CALM      30.02R
IRONWOOD       CLOUDY    29  25  85 CALM      30.02S
$$

ABBREVIATIONS USED IN REMARKS
   TC - TEMPERATURE IN CELSIUS
  WCI - WIND CHILL INDEX
   HX - HEAT INDEX
  VSB - VISIBILITY




USA.gov is the U.S. government's official web portal to all federal, state and local government web resources and services.